Location: East-View Observatory
(46.8144°N, 92.0597°W)
Time: 04:22:07
(UTC-05:00)

ISS - Visible Passes

Search period start: 24 May 2019 00:00
Search period end: 03 June 2019 00:00
Orbit: 408 x 418 km, 51.6° (Epoch: 24 May)

Date Brightness Start Highest point End Pass type
(mag) Time Alt. Az. Time Alt. Az. Time Alt. Az.
24 May -2.8 00:15:36 10° WNW 00:18:53 46° NNE 00:19:33 39° NE visible
24 May -2.3 21:48:58 10° W 21:52:08 39° N 21:55:19 10° ENE visible
24 May -2.4 23:26:06 10° WNW 23:29:17 39° N 23:31:30 17° ENE visible
25 May -1.9 01:02:48 10° WNW 01:04:18 24° WNW 01:04:18 24° WNW visible
25 May -2.2 22:36:33 10° WNW 22:39:39 35° N 22:42:47 10° ENE visible
26 May -3.5 00:13:17 10° WNW 00:16:19 67° NW 00:16:19 67° NW visible
26 May -2.1 21:46:56 10° WNW 21:50:01 34° N 21:53:08 10° ENE visible
26 May -3.2 23:23:47 10° WNW 23:27:06 56° NNE 23:28:20 33° E visible
27 May -1.2 01:00:38 10° WNW 01:01:08 13° W 01:01:08 13° W visible
27 May -2.7 22:34:16 10° WNW 22:37:30 43° NNE 22:40:24 12° E visible
28 May -2.6 00:10:58 10° WNW 00:13:12 35° W 00:13:12 35° W visible
28 May -2.4 21:44:42 10° WNW 21:47:52 37° N 21:51:01 10° ENE visible
28 May -3.9 23:21:24 10° WNW 23:24:45 81° SSW 23:25:16 60° SE visible
29 May -3.6 22:31:51 10° WNW 22:35:12 70° NNE 22:37:22 20° ESE visible
30 May -1.6 00:08:54 10° W 00:10:11 17° WSW 00:10:11 17° WSW visible
30 May -3.1 21:42:19 10° WNW 21:45:35 51° NNE 21:48:52 10° E visible
30 May -3.0 23:19:06 10° WNW 23:22:13 37° SW 23:22:18 37° SSW visible
31 May -3.6 22:29:26 10° WNW 22:32:44 59° SSW 22:34:27 25° SE visible
01 Jun -3.8 21:39:50 10° WNW 21:43:11 90° NNE 21:46:32 10° ESE visible
01 Jun -1.8 23:17:14 10° W 23:19:26 17° SW 23:19:26 17° SW visible
02 Jun -2.4 22:27:11 10° W 22:30:03 27° SW 22:31:39 18° S visible
